Location: Dugenta
(41.1333°N, 14.4500°E)
Time: 13:05:51
(UTC+00:00)

Helios 1A Rocket - Pass Details

Date: 03 March 2021
Orbit: 564 x 584 km, 98.3° (Epoch: 21 April)

Event Time Altitude Azimuth Distance (km) Brightness Sun altitude
Rises 17:35:25 0° 147° (SSE) 2,768 6.1 -8.3°
Reaches altitude 10° 17:37:39 10° 139° (SE) 1,871 5.2 -8.7°
Maximum altitude 17:41:24 38° 71° (ENE) 886 3.4 -9.4°
Drops below altitude 10° 17:45:10 10° 3° (N) 1,874 5.5 -10.1°
Sets 17:47:24 0° 356° (N) 2,773 6.5 -10.6°
